Погода в Вашингтоне

США     39°21′30″N   120°47′59″W
темп.,
°C
ветер,
м/с
пор.,
м/с
влажн.,
%
обл.,
%
осадки,
мм/ч
давл.,
гПа
погр.,
м
19 апреля, пн
пн1923:00+10всв335074 0.0 102143
02:00+10всв334798 0.0 102044
05:00+10всв334695 0.0 102041
08:00+14в22415 0.0 101978
11:00+20зюз33245 0.0 10171432
14:00+22зюз5524100 0.0 10162235
17:00+20зюз44295 0.0 10151733
20:00+11в21580 0.0 101611
20 апреля, вт
вт2023:00+9всв335813 0.0 101649
02:00+9всв3351100 0.0 101544
05:00+8всв334861 0.0 101435
08:00+12вюв11411 0.0 1012133
11:00+17ююз45280 0.0 10101475
14:00+17юз45360 0.0 10082025
17:00+15юз33436 0.2 10082012
20:00+7ссв228989 1.4 101029
21 апреля, ср
ср2123:00+5всв35901 1.4 101167
02:00+5всв35850 0.0 101168
05:00+5всв46750 0.0 101184
08:00+11всв34420 0.0 1010180
11:00+18зюз12210 0.0 10082278
14:00+19зюз552834 0.0 10082389
17:00+18з452740 0.0 10072197
20:00+10св22451 0.0 100922
22 апреля, чт
чт2223:00+7всв45350 0.0 101264
02:00+7всв45350 0.0 101259
05:00+7всв45360 0.0 101260
08:00+13всв23335 0.0 1012102
11:00+18з3419100 0.0 10102171
14:00+20зюз542265 0.0 10102202
17:00+18зюз332615 0.0 10091823
20:00+10вюв11565 0.0 101210
23 апреля, пт
пт2323:00+9всв335599 0.0 101347
02:00+9всв335290 0.0 101247
05:00+8всв334911 0.0 101239
08:00+13в11375 0.0 1012141
11:00+18юз33232 0.0 10121292
14:00+19юз442714 0.0 10111470
17:00+18юз343158 0.0 10111268
20:00+10вюв1157100 0.0 101210